TimeCDT,TemperatureF,Dew PointF,Humidity,Sea Level PressureIn,VisibilityMPH,Wind Direction,Wind SpeedMPH,Gust SpeedMPH,PrecipitationIn,Events,Conditions,WindDirDegrees,DateUTC
12:15 AM,87.3,63.7,45,29.99,10.0,SSE,9.2,-,N/A,,Clear,150,2013-08-05 05:15:00
12:35 AM,87.3,63.5,45,29.99,10.0,SSE,10.4,-,N/A,,Clear,150,2013-08-05 05:35:00
12:55 AM,87.3,63.7,45,29.99,10.0,SSE,10.4,-,N/A,,Clear,150,2013-08-05 05:55:00
1:15 AM,86.2,64.0,47,29.99,10.0,SE,8.1,-,N/A,,Clear,140,2013-08-05 06:15:00
1:35 AM,86.0,64.4,48,29.98,10.0,SSE,9.2,-,N/A,,Clear,160,2013-08-05 06:35:00
1:55 AM,85.6,64.6,49,29.98,10.0,SSE,8.1,-,N/A,,Clear,160,2013-08-05 06:55:00
2:15 AM,85.3,65.3,51,29.98,10.0,SSE,8.1,-,N/A,,Clear,160,2013-08-05 07:15:00
2:35 AM,84.6,65.3,52,29.98,10.0,SSE,8.1,-,N/A,,Clear,160,2013-08-05 07:35:00
2:55 AM,84.4,65.3,53,29.98,10.0,SSE,9.2,-,N/A,,Clear,160,2013-08-05 07:55:00
3:15 AM,84.4,65.3,53,29.98,10.0,South,9.2,17.3,N/A,,Clear,170,2013-08-05 08:15:00
3:35 AM,84.4,65.3,53,29.98,10.0,South,11.5,-,N/A,,Clear,170,2013-08-05 08:35:00
3:55 AM,84.0,65.5,54,29.98,10.0,South,13.8,18.4,N/A,,Clear,190,2013-08-05 08:55:00
4:15 AM,83.8,65.8,55,29.98,10.0,SSW,15.0,20.7,N/A,,Clear,200,2013-08-05 09:15:00
4:35 AM,83.7,66.2,56,29.98,10.0,South,13.8,-,N/A,,Clear,190,2013-08-05 09:35:00
4:55 AM,82.9,66.4,57,29.98,10.0,South,11.5,-,N/A,,Clear,190,2013-08-05 09:55:00
5:15 AM,82.6,66.6,58,29.98,10.0,South,9.2,-,N/A,,Clear,190,2013-08-05 10:15:00
5:35 AM,81.9,66.7,60,29.98,10.0,South,9.2,-,N/A,,Clear,190,2013-08-05 10:35:00
5:55 AM,81.7,67.1,61,29.98,10.0,South,9.2,-,N/A,,Clear,190,2013-08-05 10:55:00
6:15 AM,81.5,67.3,62,29.98,10.0,South,9.2,-,N/A,,Clear,190,2013-08-05 11:15:00
6:35 AM,81.0,67.5,63,29.98,10.0,SSW,8.1,-,N/A,,Clear,200,2013-08-05 11:35:00
6:55 AM,80.8,67.6,64,29.99,10.0,SSW,6.9,-,N/A,,Clear,200,2013-08-05 11:55:00
7:15 AM,80.2,67.6,65,29.99,10.0,SSW,6.9,-,N/A,,Clear,200,2013-08-05 12:15:00
7:35 AM,80.8,67.5,64,30.00,10.0,SSW,5.8,-,N/A,,Clear,200,2013-08-05 12:35:00
7:55 AM,81.5,68.0,63,30.01,10.0,South,6.9,-,N/A,,Clear,190,2013-08-05 12:55:00
8:15 AM,82.8,67.6,60,30.01,10.0,SSW,8.1,-,N/A,,Clear,200,2013-08-05 13:15:00
8:35 AM,83.8,67.1,57,30.02,10.0,SSW,9.2,-,N/A,,Clear,210,2013-08-05 13:35:00
8:55 AM,84.9,66.6,54,30.02,10.0,SW,11.5,-,N/A,,Clear,220,2013-08-05 13:55:00
9:15 AM,86.5,64.4,47,30.03,10.0,SW,10.4,-,N/A,,Clear,230,2013-08-05 14:15:00
9:35 AM,87.8,62.1,42,30.03,10.0,SW,16.1,-,N/A,,Clear,220,2013-08-05 14:35:00
9:55 AM,89.4,61.0,38,30.03,10.0,SSW,13.8,19.6,N/A,,Clear,210,2013-08-05 14:55:00
10:15 AM,90.3,60.3,36,30.03,10.0,WSW,12.7,-,N/A,,Clear,240,2013-08-05 15:15:00
10:35 AM,91.8,59.7,34,30.03,10.0,SW,10.4,-,N/A,,Clear,230,2013-08-05 15:35:00
10:55 AM,92.5,59.2,33,30.03,10.0,WSW,9.2,16.1,N/A,,Clear,240,2013-08-05 15:55:00
11:15 AM,93.6,58.1,30,30.02,10.0,SSW,8.1,-,N/A,,Clear,210,2013-08-05 16:15:00
11:35 AM,94.1,58.8,31,30.01,10.0,SSW,9.2,-,N/A,,Clear,210,2013-08-05 16:35:00
11:55 AM,95.2,58.8,30,30.01,10.0,SW,11.5,16.1,N/A,,Clear,220,2013-08-05 16:55:00
12:15 PM,95.7,58.8,29,30.00,10.0,SW,10.4,16.1,N/A,,Clear,220,2013-08-05 17:15:00
12:35 PM,96.1,59.4,29,29.99,10.0,SW,11.5,-,N/A,,Clear,230,2013-08-05 17:35:00
12:55 PM,96.6,59.5,29,29.98,10.0,SW,10.4,18.4,N/A,,Clear,230,2013-08-05 17:55:00
1:15 PM,97.0,59.7,29,29.98,10.0,SSW,9.2,16.1,N/A,,Clear,210,2013-08-05 18:15:00
1:35 PM,97.7,59.4,28,29.97,10.0,WSW,9.2,-,N/A,,Clear,240,2013-08-05 18:35:00
1:55 PM,98.1,58.8,27,29.96,10.0,SW,6.9,18.4,N/A,,Clear,220,2013-08-05 18:55:00
2:15 PM,99.0,58.6,26,29.95,10.0,SSE,10.4,-,N/A,,Clear,160,2013-08-05 19:15:00
2:35 PM,99.0,58.3,26,29.95,10.0,SW,11.5,20.7,N/A,,Clear,220,2013-08-05 19:35:00
2:55 PM,100.2,59.0,25,29.94,10.0,SSW,12.7,19.6,N/A,,Clear,200,2013-08-05 19:55:00
3:15 PM,99.9,58.6,25,29.93,10.0,SW,12.7,17.3,N/A,,Clear,220,2013-08-05 20:15:00
3:35 PM,99.7,58.6,26,29.92,10.0,South,3.5,17.3,N/A,,Clear,190,2013-08-05 20:35:00
3:55 PM,100.6,58.1,24,29.91,10.0,SSW,15.0,23.0,N/A,,Clear,210,2013-08-05 20:55:00
4:15 PM,100.0,58.5,25,29.91,10.0,SSW,8.1,-,N/A,,Clear,200,2013-08-05 21:15:00
4:35 PM,100.6,58.6,25,29.90,10.0,SSW,11.5,-,N/A,,Clear,210,2013-08-05 21:35:00
4:55 PM,100.8,57.2,23,29.90,10.0,SSW,11.5,19.6,N/A,,Clear,200,2013-08-05 21:55:00
5:15 PM,100.6,57.2,24,29.89,10.0,SW,10.4,18.4,N/A,,Clear,220,2013-08-05 22:15:00
5:35 PM,100.9,56.5,23,29.89,10.0,South,9.2,18.4,N/A,,Clear,190,2013-08-05 22:35:00
5:55 PM,100.2,55.9,23,29.88,10.0,SW,10.4,17.3,N/A,,Clear,220,2013-08-05 22:55:00
6:15 PM,100.2,55.0,22,29.88,10.0,SSE,6.9,16.1,N/A,,Clear,160,2013-08-05 23:15:00
6:35 PM,100.4,54.1,21,29.87,10.0,South,11.5,-,N/A,,Clear,180,2013-08-05 23:35:00
6:55 PM,99.7,55.0,22,29.86,10.0,South,11.5,-,N/A,,Clear,190,2013-08-05 23:55:00
7:15 PM,99.3,54.3,22,29.85,10.0,SSW,9.2,-,N/A,,Clear,210,2013-08-06 00:15:00
7:35 PM,98.6,54.9,23,29.85,10.0,SSW,11.5,16.1,N/A,,Clear,200,2013-08-06 00:35:00
7:55 PM,97.5,55.4,24,29.85,10.0,SSW,6.9,-,N/A,,Clear,200,2013-08-06 00:55:00
8:15 PM,95.5,56.5,27,29.85,10.0,SSW,5.8,-,N/A,,Clear,200,2013-08-06 01:15:00
8:35 PM,94.5,56.3,28,29.85,10.0,South,8.1,-,N/A,,Clear,190,2013-08-06 01:35:00
8:55 PM,92.7,57.2,30,29.85,10.0,SSE,8.1,-,N/A,,Clear,160,2013-08-06 01:55:00
9:15 PM,91.8,57.2,31,29.85,10.0,SSE,5.8,-,N/A,,Clear,150,2013-08-06 02:15:00
9:35 PM,90.3,57.6,33,29.86,10.0,SE,6.9,-,N/A,,Clear,140,2013-08-06 02:35:00
9:55 PM,89.2,57.9,35,29.87,10.0,SE,9.2,-,N/A,,Clear,140,2013-08-06 02:55:00
10:15 PM,89.1,59.0,36,29.88,10.0,SSE,9.2,-,N/A,,Clear,150,2013-08-06 03:15:00
10:35 PM,88.7,59.0,37,29.88,10.0,SSE,9.2,-,N/A,,Clear,150,2013-08-06 03:35:00
10:55 PM,88.0,59.0,37,29.88,10.0,SSE,9.2,-,N/A,,Clear,150,2013-08-06 03:55:00
11:15 PM,87.8,58.6,37,29.88,10.0,SSE,9.2,-,N/A,,Clear,150,2013-08-06 04:15:00
11:35 PM,88.2,58.1,36,29.88,10.0,SSE,8.1,-,N/A,,Clear,150,2013-08-06 04:35:00
11:55 PM,88.3,58.1,36,29.89,10.0,SSE,10.4,-,N/A,,Clear,160,2013-08-06 04:55:00